Regional Weather Roundup
Issued by NWS Kansas City/Pleasant Hill, MO

Home | Current Version | Previous Version | Graphics & Text | Print | Product List | Glossary Off
Versions: 1 2 3 4 5 6 7 8 9 10 11 12 13 14 15 16 17 18 19 20 21 22 23 24 25 26 27 28 29 30 31 32 33 34 35 36 37 38 39 40 41 42 43 44 45 46 47 48 49 50

000
ASUS43 KEAX 190810
RWREAX

WEATHER ROUNDUP FOR EASTERN KANSAS AND NORTHWEST MISSOURI
NATIONAL WEATHER SERVICE KANSAS CITY/PLEASANT HILL MO
300 AM CDT SUN APR 19 2015

KSZ040-057-103>105-MOZ028-029-037-043-190900-
...KANSAS CITY METROPOLITAN AREA...

CITY           SKY/WX    TMP DP  RH WIND       PRES   REMARKS
K.C. INTL      MOCLDY    57  57 100 CALM      29.76F FOG
K.C. DOWNTOWN  MOCLDY    60  58  92 CALM      29.75F FOG
LEES SUMMIT    CLOUDY    59  58  96 CALM      29.77F FOG
OLATHE - IXD   LGT RAIN  54  53  97 NW6       29.77F
OLATHE - OJC   CLOUDY    58  57  97 CALM      29.75F
LAWRENCE       LGT RAIN  57  52  83 CALM      29.77F

$$

MOZ001>008-011>017-020>025-030>033-038>040-044>046-053-054-190900-
...NORTHERN AND CENTRAL MISSOURI...

CITY           SKY/WX    TMP DP  RH WIND       PRES   REMARKS
ST. JOSEPH     LGT RAIN  58  58 100 SE7       29.77F FOG
MOSBY          RAIN      59  59 100 CALM      29.77F
WARRENSBURG    FOG       59  55  88 CALM      29.75F VSB 1
WHITEMAN AFB   MOCLDY    57  57 100 S3        29.75F FOG
CLINTON        FOG       57  57 100 CALM      29.76F VSB 1/4
SEDALIA        FOG       56  54  93 CALM      29.77F VSB 3/4
WARSAW         NOT AVBL
CHILLICOTHE      N/A     59  57  93 CALM      29.77F
MOBERLY        CLEAR     55  50  82 NE3       29.77
KIRKSVILLE     MOCLDY    58  56  93 SE6       29.78F

$$

MOZ041-047>049-056>058-063>065-088>090-097-190900-
...EASTERN AND SOUTHERN MISSOURI...

CITY           SKY/WX    TMP DP  RH WIND       PRES   REMARKS
ST. LOUIS INTL MOCLDY    64  55  72 CALM      29.77F
SPIRIT OF STL  MOCLDY    58  55  90 CALM      29.75F
COLUMBIA       CLEAR     57  54  89 SE6       29.76F
JEFFERSON CITY CLEAR     55  53  93 CALM      29.76F
MEXICO         FAIR     N/A N/A N/A CALM      29.78F
ROLLA          CLOUDY    58  55  90 CALM      29.74F
LEBANON        CLEAR     57  55  94 CALM      29.76F FOG
OSAGE BEACH    MOCLDY    55  52  88 CALM      29.76F VSB 3/4
SPRINGFIELD    PTCLDY    50  49  96 CALM      29.76F FOG
BRANSON        CLEAR     57  57 100 CALM      29.77F
NEVADA         FOG       57  57 100 SE6       29.76F VSB 3/4
JOPLIN         CLOUDY    61  57  87 SW14G21   29.78F
WEST PLAINS    RAIN      59  57  93 CALM      29.75F FOG

$$

IAZ060-094-KSZ022-034>040-054-083-096-NEZ052-066-093-190900-
...KANSAS...SOUTHEAST NEBRASKA AND IOWA...

CITY           SKY/WX    TMP DP  RH WIND       PRES   REMARKS
TOPEKA         LGT RAIN  57  53  86 SW9       29.80S
MANHATTAN      RAIN      54  53  97 S8        29.77F FOG
EMPORIA        CLOUDY    53  52  96 NE6       29.76F
CHANUTE        CLOUDY    54  53  97 NW8       29.80F
WICHITA        CLOUDY    53  50  89 S3        29.75R
OMAHA          CLOUDY    57  56  96 S5        29.77F
LINCOLN        CLOUDY    54  51  90 N5        29.76F
FALLS CITY     MOCLDY    54  53  97 S7        29.75F
LAMONI         LGT RAIN  59  58  96 S3        29.77F FOG
DES MOINES     CLOUDY    58  56  93 S3        29.78F

$$



USA.gov is the U.S. government's official web portal to all federal, state and local government web resources and services.